Location: Jackson Park
(37.2862°N, 79.9123°W)
Time: 20:59:12
(UTC+00:00)

Transit 4A - Pass Details

Date: 12 May 2026
Orbit: 860 x 980 km, 66.8° (Epoch: 9 June)

Event Time Altitude Azimuth Distance (km) Brightness Sun altitude
Rises 15:11:03 0° 250° (WSW) 3,548 10.7 56.7°
Reaches altitude 10° 15:14:13 10° 266° (W) 2,631 10.1 57.3°
Maximum altitude 15:18:42 21° 314° (NW) 2,005 9.6 58.0°
Drops below altitude 10° 15:23:17 10° 1° (N) 2,697 10.3 58.8°
Sets 15:26:36 0° 17° (NNE) 3,663 10.9 59.4°
